Tulsa, OK

7:57 AM CDT on March 30, 2017 (GMT -0500)
Tulsa International

Weather History for KTUL - April, 2014

Change the Weather History Date:

Tuesday, April 29, 2014

  Actual Average Record
Temperature  
Mean Temperature 52 °F 65 °F  
Max Temperature 58 °F 75 °F 92 °F (1987)
Min Temperature 46 °F 54 °F 38 °F (1969)
Degree Days  
Heating Degree Days 13 3  
Month to date heating degree days 186 184  
Since 1 July heating degree days 4049 3533  
Cooling Degree Days 0 3  
Month to date cooling degree days 33 50  
Year to date cooling degree days 34 62  
Growing Degree Days 2 (Base 50)    
Moisture  
Dew Point 39 °F    
Average Humidity 59    
Maximum Humidity 71    
Minimum Humidity 47    
Precipitation  
Precipitation T in 0.16 in 1.99 in (1994)
Month to date precipitation 2.13 3.62  
Year to date precipitation 4.94 10.42  
Sea Level Pressure  
Sea Level Pressure 29.74 in    
Wind  
Wind Speed 16 mph (WNW)    
Max Wind Speed 25 mph    
Max Gust Speed 32 mph    
Visibility 10 miles    
Events      
T = Trace of Precipitation, MM = Missing Value Source: NWS Daily Summary

Daily Weather History Graph

Daily Weather History Graph

Search for Another Location

Airport or City:

Trip Planner

Search our weather history database for the weather conditions in past years. The results will help you decide how hot, cold, wet, or windy it might be!

Date:

Astronomy

Apr. 29, 2014 Rise Set
Actual Time 6:32 AM CDT 8:09 PM CDT
Civil Twilight 6:05 AM CDT 8:36 PM CDT
Nautical Twilight 5:32 AM CDT 9:10 PM CDT
Astronomical Twilight 4:57 AM CDT 9:44 PM CDT
Moon 6:51 AM CDT (4/29) 8:50 PM CDT (4/29)
Length of Visible Light 14h 31m
Length of Day
13h 36m
New Moon, 0% of the Moon is Illuminated
Apr 29
New Moon
May 6
First Quarter
May 14
Full
May 21
Last Quarter
May 28
New

Hourly Weather History & Observations

Time (CDT) Temp. Dew Point Humidity Pressure Visibility Wind Dir Wind Speed Gust Speed Precip Events Conditions
12:53 AM 57.9 °F 37.0 °F 46% 29.63 in 10.0 mi West 15.0 mph - N/A   Partly Cloudy
1:53 AM 57.0 °F 37.0 °F 47% 29.63 in 10.0 mi West 17.3 mph - N/A   Clear
2:53 AM 55.9 °F 37.0 °F 49% 29.61 in 10.0 mi WNW 17.3 mph 25.3 mph N/A   Clear
3:53 AM 54.0 °F 37.0 °F 53% 29.61 in 10.0 mi West 15.0 mph - N/A   Clear
4:53 AM 54.0 °F 37.0 °F 53% 29.63 in 10.0 mi West 16.1 mph 31.1 mph N/A   Clear
5:53 AM 53.1 °F 37.0 °F 55% 29.63 in 10.0 mi West 16.1 mph - N/A   Partly Cloudy
6:53 AM 52.0 °F 37.9 °F 59% 29.63 in 10.0 mi West 16.1 mph - N/A   Scattered Clouds
7:53 AM 52.0 °F 39.0 °F 61% 29.66 in 10.0 mi WNW 18.4 mph 24.2 mph N/A   Mostly Cloudy
8:53 AM 53.1 °F 39.9 °F 61% 29.68 in 10.0 mi West 19.6 mph 31.1 mph N/A   Mostly Cloudy
9:53 AM 52.0 °F 39.0 °F 61% 29.70 in 10.0 mi WNW 20.7 mph 26.5 mph N/A   Overcast
10:53 AM 52.0 °F 39.0 °F 61% 29.72 in 10.0 mi WNW 23.0 mph 31.1 mph N/A   Overcast
11:53 AM 52.0 °F 39.9 °F 63% 29.75 in 10.0 mi West 23.0 mph 29.9 mph 0.00 in   Overcast
12:53 PM 54.0 °F 39.9 °F 59% 29.75 in 10.0 mi WNW 20.7 mph 28.8 mph N/A   Overcast
1:53 PM 53.1 °F 41.0 °F 64% 29.77 in 10.0 mi West 16.1 mph 25.3 mph N/A   Overcast
2:53 PM 54.0 °F 42.1 °F 64% 29.78 in 10.0 mi West 16.1 mph - N/A   Overcast
3:53 PM 53.6 °F 41.0 °F 62% 29.79 in 10.0 mi West 17.3 mph - N/A   Overcast
4:53 PM 53.6 °F 41.0 °F 62% 29.81 in 10.0 mi WNW 13.8 mph - N/A   Overcast
5:53 PM 53.1 °F 41.0 °F 64% 29.83 in 10.0 mi WNW 11.5 mph - N/A   Overcast
6:53 PM 53.1 °F 39.9 °F 61% 29.85 in 10.0 mi WNW 12.7 mph - N/A   Overcast
7:53 PM 52.0 °F 39.9 °F 63% 29.87 in 10.0 mi NW 8.1 mph - N/A   Overcast
8:53 PM 52.0 °F 37.9 °F 59% 29.89 in 10.0 mi NW 16.1 mph - N/A   Overcast
9:53 PM 50.0 °F 37.0 °F 61% 29.91 in 10.0 mi NW 12.7 mph - N/A   Overcast
10:53 PM 50.0 °F 37.9 °F 63% 29.93 in 10.0 mi NW 9.2 mph - N/A   Overcast
11:53 PM 46.9 °F 37.9 °F 71% 29.94 in 10.0 mi NW 8.1 mph - N/A   Mostly Cloudy